Location: Unspecified
(0.0000°N, 0.0000°E)
Time: 19:07:26
(UTC+00:00)

TACSAT 4 - Visible Passes

Search period start: 17 May 2026 00:00
Search period end: 27 May 2026 00:00
Orbit: 383 x 12017 km, 62.8° (Epoch: 17 May)

Date Brightness Start Highest point End Pass type
(mag) Time Alt. Az. Time Alt. Az. Time Alt. Az.
17 May ? 02:34:33 10° N 03:45:53 42° NE 04:05:54 10° ESE visible
17 May ? 20:27:25 10° WNW 20:41:17 19° NW 21:15:18 10° N visible
18 May ? 01:56:26 10° N 03:05:08 33° NE 03:26:58 10° ESE visible
18 May ? 19:47:15 10° W 20:00:18 26° NW 20:38:29 10° N visible
19 May ? 01:19:29 10° N 02:23:25 25° NE 02:46:45 10° E visible
19 May ? 05:42:35 10° NNW 06:39:38 53° W 06:53:27 10° S visible
19 May ? 19:08:26 10° WSW 19:20:16 34° NW 20:00:31 10° N visible
20 May ? 00:44:56 10° N 01:40:17 19° NE 02:04:05 10° E visible
20 May ? 05:00:01 10° NNW 06:03:18 69° WSW 06:17:17 10° S visible
20 May ? 18:30:24 10° WSW 18:40:56 44° NW 19:21:51 10° NNE visible
21 May ? 00:17:40 10° NNE 00:54:28 13° NE 01:15:01 10° ENE visible
21 May ? 04:18:26 10° NNW 05:26:16 85° WSW 05:40:45 10° SSE visible
21 May ? 17:52:53 10° SW 18:02:17 58° WNW 18:42:36 10° NNE visible
22 May ? 03:37:38 10° NNW 04:48:28 78° ENE 05:03:52 10° SSE visible
23 May ? 02:57:29 10° NNW 04:09:55 64° ENE 04:26:37 10° SE visible
23 May ? 21:10:02 10° NNW 21:13:15 10° NNW 21:16:49 10° NNW visible
24 May ? 02:17:56 10° N 03:30:34 52° ENE 03:48:57 10° SE visible
24 May ? 20:14:49 10° WNW 20:28:10 14° NW 20:54:25 10° N visible
25 May ? 01:39:01 10° N 02:50:28 41° NE 03:10:42 10° ESE visible
25 May ? 19:32:01 10° W 19:45:46 20° NW 20:19:50 10° N visible
26 May ? 01:00:53 10° N 02:09:35 33° NE 02:31:38 10° ESE visible
26 May ? 05:30:25 10° NW 06:20:15 40° W 06:34:06 10° SSW visible
26 May ? 18:51:54 10° W 19:04:48 26° NW 19:42:52 10° N visible
